Preview of NWS' New Version of Forecast
This preview is not operational and should not be used for support decisions.

Regional Weather Roundup (RWR)

Issued by National Weather Service (NWS)

                            
000
ASUS46 KPQR 241410
RWROR 

OREGON REGIONAL WEATHER ROUNDUP
NATIONAL WEATHER SERVICE PORTLAND OR
700 AM PDT MON JUN 24 2019

NOTE: "FAIR" INDICATES FEW OR NO CLOUDS BELOW 12,000 FEET WITH
NO SIGNIFICANT WEATHER AND/OR OBSTRUCTIONS TO VISIBILITY.

ORZ001>013-241500-
NORTHWEST OREGON

  
CITY           SKY/WX    TMP DP  RH WIND       PRES   REMARKS
ASTORIA        CLOUDY    55  51  86 NW5       30.09F                  
TILLAMOOK      SUNNY     46  45  93 SE3       30.12F                  
NEWPORT        PTSUNNY   50  46  87 CALM      30.13S                  
PORTLAND       MOSUNNY   54  47  77 CALM      30.11R                  
VANCOUVER WA   SUNNY     53  47  79 CALM      30.10S                  
SCAPPOOSE      MOSUNNY   51  47  86 CALM      30.10S                  
HILLSBORO      SUNNY     47  44  90 CALM      30.10S                  
AURORA         SUNNY     54  45  71 CALM      30.11S                  
MCMINNVILLE    SUNNY     51  46  83 CALM      30.10S                  
SALEM          SUNNY     54  45  71 N6        30.09S                  
CORVALLIS      MOSUNNY   53  47  79 CALM      30.10S                  
EUGENE         MOSUNNY   53  46  77 N6        30.10S                  
$$

ORZ021-028-241500-
SOUTHWEST OREGON

  
CITY           SKY/WX    TMP DP  RH WIND       PRES   REMARKS
NORTH BEND     PTSUNNY   50  48  93 SE3       30.10S                  
BROOKINGS      MOSUNNY   50  47  89 CALM      30.03S                  
ROSEBURG       SUNNY     55  47  74 N5        30.08R                  
SEXTON SUMMIT  SUNNY     51  44  77 N10       30.06R                  
GRANTS PASS    FAIR      55  46  71 CALM      30.06S                  
MEDFORD        SUNNY     57  45  64 CALM      30.03S                  
$$

ORZ014>016-041-241500-
COLUMBIA GORGE

  
CITY           SKY/WX    TMP DP  RH WIND       PRES   REMARKS
TROUTDALE      SUNNY     53  47  79 CALM      30.11R                  
HOOD RIVER     SUNNY     54  45  71 W10G17    30.05S                  
THE DALLES     SUNNY     56  45  66 NW13      30.03S                  
$$

ORZ029>031-041-044-049-050-061>064-502-503-505>511-241500-
EASTERN OREGON

  
CITY           SKY/WX    TMP DP  RH WIND       PRES   REMARKS
MADRAS         SUNNY     46  39  76 CALM      30.06S                  
REDMOND        SUNNY     49  38  65 E5        30.04S                  
BEND           SUNNY     50  41  71 S6        30.04F                  
PRINEVILLE     SUNNY     48  39  71 CALM      30.04F                  
KLAMATH FALLS  PTSUNNY   47  41  80 CALM      30.05S                  
LAKEVIEW       SUNNY     45  37  73 N3        30.08S                  
HERMISTON      SUNNY     58  45  62 SW8       30.00S                  
PENDLETON      SUNNY     53  39  59 CALM      30.02R                  
JOHN DAY       SUNNY     48  39  70 E5        30.06S                  
MEACHAM        SUNNY     43  36  76 CALM      30.03F                  
LA GRANDE      MOSUNNY   49  40  71 SE6       30.05R                  
BAKER CITY     SUNNY     49  41  74 S3        30.04S                  
BURNS          SUNNY     49  36  61 NW3       30.07R                  
ROME             N/A     57  37  47 CALM      30.03F                  
ONTARIO        MOSUNNY   57  42  57 W5        30.01S                  
$$